{"data":{"norad_id":42709,"intl_designator":"2017-026A","name":"SES-15 (WAAS/PRN 133)","alt_names":[],"object_type":"PAYLOAD","status":"ACTIVE","operator":null,"country":"SES","launch_date":"2017-05-18","launch_site_code":"FRGUI","launch_vehicle":null,"mission":null,"orbit_class":"UNKNOWN","rcs_meters":null,"size_class":null,"mass_kg":null,"dimensions":null,"purposes":["comms","nav"],"wikipedia_slug":null,"has_3d_model":false,"image_url":null,"decayed_at":null,"tle_current":{"epoch":"2026-05-25T05:38:11.609376Z","epoch_age_seconds":54220,"freshness":"FRESH","line1":"1 42709U 17026A   26145.23485659  .00000058  00000+0  00000+0 0  9999","line2":"2 42709   0.0196 334.8415 0000545  69.4151 153.9628  1.00270113  7206","mean_motion":1.00270113,"eccentricity":5.45e-5,"inclination_deg":0.0196,"raan_deg":334.8415,"arg_perigee_deg":69.4151,"mean_anomaly_deg":153.9628,"bstar":0,"rev_number":720,"period_min":1436.120850886,"perigee_km":35784.765686562,"apogee_km":35789.361693437,"semimajor_km":42165.200689999,"source":"CELESTRAK","updated_at":"2026-05-25T13:38:24.342479Z"}}}